|
NORAD ID: 4154 Int'l Code: 1969-082W
Perigee: 846.0 km
Apogee: 917.6 km
Inclination: 70.1 °
Period: 102.5 minutes
Semi major axis: 7252 km
Launch date: September 30, 1969
Source: United States (US)
Note: This is SATELLITE DEBRIS
Two Line Element Set (TLE):
1 04154U 69082W 13143.80668846 -.00000175 00000-0 -73522-4 0 4800
2 04154 070.0710 055.2972 0049313 337.5894 057.8807 14.05543903979206
Source:
NASA's NSSDC Master Catalog entry for THORAD AGENA D DEB
|